カタログに戻る

STARLINK-3178

運用中通信VLEO
NORAD 51467·PAYLOAD·🇺🇸 United States

打ち上げ Feb 3, 2022 から Cape Canaveral Space Force Station

Loading…

次のパス (今後24時間)

TLE

最新Source: CelesTrak SupGP

元期: Sep 14, 2026, 21:12 UTC

1 51467C 22010M   26257.88381944 -.00027535  00000+0 -83589-3 0  2571
2 51467  53.1588 142.2074 0001302  90.2297  60.4267 15.33548983    15

AllMySatでSTARLINK-3178をリアルタイム追跡

Download on the App Store